Miscellaneous Local Product
Issued by NWS Hastings, NE

Home | Current Version | Previous Version | Text Only | Print | Product List | Glossary Off
Versions: 1 2 3 4 5 6 7 8 9 10 11 12 13 14 15 16 17 18 19 20 21 22 23 24 25 26 27 28 29 30 31 32 33 34 35 36 37 38 39 40 41 42 43 44 45 46 47 48 49 50

000
AXUS43 KGID 260502
MISGRI

GID CWA HOURLY WEATHER ROUNDUP
NATIONAL WEATHER SERVICE HASTINGS NE
1200 AM CDT SUN MAR 26 2017

NOTE: "FAIR" INDICATES FEW OR NO CLOUDS BELOW 12,000 FEET WITH NO
SIGNIFICANT WEATHER AND/OR OBSTRUCTIONS TO VISIBILITY.

...SOUTH CENTRAL NEBRASKA...

CITY           SKY/WX    TMP DP  RH WIND       PRES   REMARKS
GRAND ISLAND   FOG       38  38 100 NE5       29.93F VSB 3/4 WCI  34
HASTINGS       CLOUDY    39  37  92 E8        29.93F FOG     WCI  33
KEARNEY        CLOUDY    39  36  87 NE8       29.92F WCI  34
ORD            CLOUDY    39  37  92 E5        29.91F FOG
YORK           CLOUDY    39  39 100 N6        29.94F FOG     WCI  35
AURORA         CLOUDY    38  38 100 NE8       29.92F FOG     WCI  32
LEXINGTON      CLOUDY    41  40  94 SE8       29.90F FOG
HOLDREGE       CLOUDY    40  39  95 E8        29.90F FOG     WCI  35
HEBRON         LGT RAIN  40  39  97 CALM      29.93F

...NEBRASKA PANHANDLE...

CITY           SKY/WX    TMP DP  RH WIND       PRES   REMARKS
CHADRON        PTCLDY    54  31  41 SW6       29.79S
ALLIANCE       CLOUDY    44  30  57 SE9       29.82F
SCOTTSBLUFF    CLOUDY    49  34  56 E10       29.82S
SIDNEY         CLOUDY    37  29  72 S6        29.85F WCI  32

...WESTERN AND NORTH CENTRAL NEBRASKA...

CITY           SKY/WX    TMP DP  RH WIND       PRES   REMARKS
VALENTINE      CLOUDY    40  37  89 SE14      29.88S WCI  32
AINSWORTH      CLOUDY    39  38  99 SE13      29.90S WCI  31
ONEILL         FOG       39  39 100 E5        29.93F VSB 3/4
BROKEN BOW     CLOUDY    41  40  96 SE7       29.90F
IMPERIAL       CLOUDY    42  39  89 SE13      29.86F
NORTH PLATTE   CLOUDY    42  40  92 SE7       29.89S
MCCOOK         CLOUDY    41  41 100 E7        29.89F FOG

...EASTERN NEBRASKA...

CITY           SKY/WX    TMP DP  RH WIND       PRES   REMARKS
NORFOLK        CLOUDY    38  36  92 E5        29.94S FOG     WCI  34
SO SIOUX CITY  CLOUDY    39  38  96 E7        29.95F WCI  34
TEKAMAH        CLOUDY    40  38  93 NE7       29.93F
COLUMBUS       CLOUDY    37  36  93 N5        29.95F WCI  34
ALBION         FOG       39  38  94 E5        29.93F VSB 3/4
OMAHA EPPLEY   LGT RAIN  41  37  86 N9        29.92F
OFFUTT AFB     CLOUDY    41  39  93 N6        29.91F
MILLARD        CLOUDY    43  40  91 N3        29.93S
LINCOLN        CLOUDY    41  39  93 NE7       29.93F
NEBRASKA CITY  CLOUDY    40  40 100 N5        29.90F
BEATRICE       CLOUDY    41  40  97 N5        29.92F
FALLS CITY     CLOUDY    42  41  96 NW6       29.90F

...NORTHERN KANSAS...

CITY           SKY/WX    TMP DP  RH WIND       PRES   REMARKS
GOODLAND       CLOUDY    40  38  93 SE9       29.85F WCI  34
HILL CITY      PTCLDY    36  36 100 E3        29.90F FOG
NORTON         CLOUDY    39  37  93 E5        29.89F FOG
PHILLIPSBURG   CLOUDY    43  41  93 E6        29.91F
HAYS             N/A     44  38  79 E10       29.90F
RUSSELL        CLOUDY    42  39  89 E10       29.89F
CONCORDIA      FOG       40  40 100 N7        29.92F VSB 1
SALINA         CLOUDY    44  42  93 NW5       29.93F FOG
TOPEKA         CLOUDY    44  43  96 NW8       29.90F



USA.gov is the U.S. government's official web portal to all federal, state and local government web resources and services.